Location: LDNL
(36.4545°S, 141.6685°E)
Time: 04:41:51
(UTC+11:00)

A-11 Canister half - Pass Details

Date: 13 August 2022
Orbit: 1524 x 1684 km, 47.3° (Epoch: 05 October)

Event Time Altitude Azimuth Distance (km) Brightness Sun altitude
Rises 18:50:03 0° 279° (W) 4,698 13.8 -11.0°
Reaches altitude 10° 18:53:14 10° 274° (W) 3,709 12.6 -11.6°
Maximum altitude 19:02:18 52° 198° (SSW) 1,842 9.5 -13.4°
Enters shadow 19:10:21 14° 125° (SE) 3,409 10.3 -15.0°
Drops below altitude 10° 19:11:26 10° 122° (ESE) 3,731 - -15.2°
Sets 19:14:40 0° 117° (ESE) 4,728 - -15.8°
